This demonstration page uses our WeatherBlox Daily Observations layout. Learn more.

Left ArrowRight Arrow

Hourly Observations for June 14, 2019

Temp ( °F °C ) Dew Point ( °F °C ) Humidity (%) Winds ( mph kmh ) Pressure ( in mb ) Visibility ( mi km ) Precip ( " mm )
12:53 am 00:53 Clear 50 10 48 8.9 93 93 WSW 5 7 30.09 1019 10 16 N/A
1:53 am 01:53 Clear 50 10 47 8.3 89 89 W 5 7 30.09 1019 10 16 N/A
2:53 am 02:53 Clear 49 9.4 46 7.8 90 90 W 3 6 30.09 1019 10 16 N/A
3:53 am 03:53 Clear 47 8.3 44 6.7 90 90 N N/A 30.10 1019 10 16 N/A
4:53 am 04:53 Clear 46 7.8 43 6.1 89 89 N N/A 30.11 1020 8 13 N/A
5:02 am 05:02 Clear with Mist and Fog 45 7.2 43 6.1 93 93 N N/A 30.14 1021 2 3 N/A
5:11 am 05:11 Clear with Mist and Fog 45 7.2 42 5.6 90 90 N N/A 30.14 1021 4 6 N/A
5:53 am 05:53 Clear with Mist and Fog 44 6.7 42 5.6 93 93 N N/A 30.15 1021 2 3 N/A
6:01 am 06:01 Clear with Mist and Fog 44 6.7 41 5 89 89 N N/A 30.17 1022 1 1 N/A
6:18 am 06:18 Sunny with Mist and Fog 46 7.8 42 5.6 86 86 N N/A 30.16 1021 2 3 N/A
6:26 am 06:26 Sunny with Mist and Fog 45 7.2 42 5.6 90 90 N N/A 30.17 1022 5 8 N/A
6:53 am 06:53 Sunny 47 8.3 46 7.8 97 97 N N/A 30.16 1021 7 11 N/A
7:53 am 07:53 Sunny 54 12.2 51 10.6 90 90 N N/A 30.17 1022 10 16 N/A
8:53 am 08:53 Sunny 59 15 50 10 72 72 W 5 7 30.19 1022 10 16 N/A
9:53 am 09:53 Sunny 64 17.8 51 10.6 63 63 VRB 6 9 30.19 1022 10 16 N/A
10:53 am 10:53 Sunny 67 19.4 48 8.9 51 51 WSW 8 13 30.19 1022 10 16 N/A
11:53 am 11:53 Sunny 71 21.7 48 8.9 44 44 VRB 3 6 30.17 1022 10 16 N/A
12:53 pm 12:53 Sunny 72 22.2 46 7.8 40 40 VRB 6 9 30.16 1022 10 16 N/A
1:53 pm 13:53 Sunny 74 23.3 44 6.7 34 34 VRB 5 7 30.13 1020 10 16 N/A
2:53 pm 14:53 Sunny 74 23.3 45 7.2 36 36 SSW 9 15 30.11 1020 10 16 N/A
3:53 pm 15:53 Sunny 76 24.4 46 7.8 35 35 VRB 5 7 30.08 1019 10 16 N/A
4:53 pm 16:53 Sunny 76 24.4 45 7.2 33 33 S 7 11 30.07 1018 10 16 N/A
5:53 pm 17:53 Sunny 75 23.9 45 7.2 34 34 SSW 8 13 30.06 1018 10 16 N/A
6:53 pm 18:53 Sunny 72 22.2 46 7.8 40 40 VRB 5 7 30.05 1018 10 16 N/A
7:53 pm 19:53 Sunny 71 21.7 47 8.3 42 42 SSW 6 9 30.05 1018 10 16 N/A
8:53 pm 20:53 Sunny 69 20.6 49 9.4 49 49 VRB 3 6 30.04 1017 10 16 N/A
9:53 pm 21:53 Clear 68 20 50 10 53 53 VRB 3 6 30.04 1017 10 16 N/A
10:53 pm 22:53 Clear 68 20 50 10 53 53 VRB 3 6 30.03 1017 10 16 N/A
11:53 pm 23:53 Clear 68 20 51 10.6 55 55 S 3 6 30.01 1016 10 16 N/A

Powered by AerisWeather